[[{"header":{"parameterUnit":"m.s-1","parameterCategory":1,"la1":30.2991,"la2":30.254,"lo1":-89.0895,"lo2":-89.0444,"dy":0.0017,"dx":0.0017,"nx":28,"ny":28,"refTime":"2024-05-17T21:00:00:Z","depth":0,"parameterNumber":2,"parameterNumberName":"U-component_of_WINDS"},"data":[0,0,0,0,0,0,0,0,0,0,0,0,0,0,0,0,0,0,0,0,0,0,0,0,0,0,0,0,0,0,0,0,0,0,0,0,0,0,0,0,0,0,0,0,0,0,0,0,0,0,0,0,0,0,0,0,0,0,0.5566,0.5566,0,0.5604,0.5604,0.5604,0.5582,0.5581,0.558,0.5579,0.5614,0.5616,0.5618,0,0,0,0,0,0,0,0,0,0,0,0,0,0.5471,0.5473,0.5566,0.5566,0.5567,0.5603,0.5604,0.5604,0.5582,0.5581,0.558,0.5579,0.5614,0.5616,0.5618,0,0,0,0,0,0,0,0,0,0,0,0,0,0.5511,0.5474,0.5566,0.556,0.556,0.5603,0.5604,0.5605,0.5583,0.5581,0.5579,0.5578,0.5613,0.5616,0.5618,0.5668,0,0,0.5627,0.5628,0,0,0,0,0,0,0,0,0.5509,0.5514,0.5561,0.5561,0.5561,0.5587,0.5583,0.5626,0.5583,0.5574,0.5579,0.5577,0.5606,0.5609,0.562,0.567,0.5671,0.5627,0.5629,0.563,0.5631,0,0,0,0,0,0,0,0.5506,0.5513,0.5581,0.5561,0.5561,0.5555,0.5559,0.5591,0.5598,0.5575,0.5573,0.5578,0.5606,0.5617,0.562,0.5672,0.5627,0.563,0.5632,0.5633,0.5764,0.5765,0,0,0,0,0,0,0.5504,0.551,0.5579,0.5582,0.553,0.5558,0.5562,0.558,0.5598,0.5599,0.5579,0.5577,0.5613,0.5617,0.5622,0.5681,0.563,0.5633,0.5635,0.5762,0.5764,0.5766,0,0,0,0,0,0,0.5502,0.551,0.5578,0.5546,0.5554,0.5561,0.5581,0.5581,0.5593,0.5602,0.5602,0.559,0.5612,0.5618,0.5657,0.5682,0.5634,0.5637,0.576,0.5763,0.5765,0.5801,0,0,0,0,0,0,0.5499,0.551,0.553,0.5546,0.5556,0.5614,0.5583,0.5583,0.5598,0.5595,0.5612,0.5613,0.5611,0.5653,0.566,0.5685,0.5639,0.5758,0.5761,0.5764,0.5797,0.5804,0.581,0,0,0,0,0,0.5496,0.5538,0.5531,0.5539,0.5581,0.5615,0.5621,0.5619,0.56,0.562,0.5625,0.5612,0.5678,0.5657,0.5665,0.5691,0.5756,0.576,0.5764,0.5794,0.5803,0.581,0,0,0,0,0,0,0.5523,0.554,0.5533,0.5581,0.5597,0.5612,0.5636,0.5627,0.5648,0.5645,0.564,0.5644,0.5685,0.5692,0.5668,0.574,0.5714,0.572,0.5734,0.5743,0.5749,0.5747,0.5642,0,0,0,0,0,0.5534,0.5562,0.5575,0.5616,0.5625,0.5629,0.5644,0.5641,0.5657,0.5664,0.5672,0.5687,0.5711,0.5727,0.5749,0.5798,0.5801,0.582,0.5826,0.5831,0.5836,0.5862,0.5871,0.5779,0.5779,0.5779,0,0,0.5558,0.5571,0.5589,0.5622,0.5634,0.5662,0.5635,0.5666,0.5686,0.5668,0.5706,0.5713,0.5729,0.5773,0.5793,0.578,0.5862,0.5836,0.584,0.5843,0.5867,0.5876,0.5884,0.5782,0.5781,0.5781,0,0,0.5617,0.5629,0.5665,0.5678,0.5697,0.57,0.5708,0.5724,0.5728,0.5767,0.5754,0.5777,0.5818,0.5831,0.5842,0.5905,0.5893,0.5912,0.5945,0.5971,0.5978,0.5984,0.6007,0.6015,0.5917,0.5917,0.5917,0,0.5644,0.5687,0.5684,0.5716,0.5731,0.5717,0.5752,0.5764,0.5789,0.5799,0.5785,0.5836,0.5846,0.5893,0.5908,0.5918,0.5927,0.591,0.5977,0.5984,0.599,0.6011,0.6019,0.5919,0.5919,0.5918,0.5918,0,0.5719,0.5749,0.5775,0.5801,0.5819,0.5852,0.5854,0.5872,0.5867,0.587,0.5909,0.592,0.5945,0.5956,0.5951,0.6002,0.5993,0.5978,0.5952,0.6001,0.6021,0.6029,0.5922,0.5921,0.5921,0.592,0,0,0.5796,0.582,0.583,0.5842,0.5862,0.5884,0.5916,0.5941,0.5956,0.5974,0.6,0.6035,0.6022,0.6035,0.6031,0.6053,0.6102,0.6035,0.6035,0.6047,0.6158,0.617,0.618,0.6094,0.6095,0.6097,0.6157,0,0.5856,0.5915,0.5913,0.5967,0.5994,0.598,0.6008,0.6023,0.6027,0.6049,0.6053,0.6078,0.6058,0.6066,0.6087,0.6091,0.6124,0.6087,0.6118,0.6119,0.6116,0.619,0.6203,0.626,0.6165,0.6166,0.6167,0,0.5935,0.5956,0.6013,0.6028,0.604,0.6065,0.6088,0.611,0.6125,0.6126,0.6141,0.6134,0.6165,0.6138,0.6181,0.6155,0.6168,0.6172,0.6174,0.6177,0.6147,0.6196,0.6278,0.6287,0.6179,0.6178,0.6178,0,0.5986,0.6028,0.6068,0.6078,0.6097,0.6115,0.6124,0.6138,0.6153,0.6172,0.6182,0.6204,0.6216,0.6233,0.6231,0.6211,0.6275,0.6247,0.6276,0.6277,0.6291,0.629,0.6377,0.6298,0.6298,0.6298,0.6298,0,0.6054,0.6089,0.6091,0.6116,0.6155,0.6152,0.619,0.6196,0.6209,0.6233,0.6221,0.6244,0.624,0.6263,0.6261,0.6297,0.6303,0.6304,0.6303,0.6306,0.6306,0.6314,0.6311,0.63,0.6299,0.6299,0.6299,0,0.6118,0.6121,0.6163,0.6178,0.6182,0.621,0.6222,0.6245,0.6247,0.6279,0.6286,0.629,0.6316,0.6315,0.6344,0.6343,0.6388,0.6382,0.6383,0.6382,0.6412,0.6409,0.6507,0.6519,0.6432,0.6433,0.6434,0,0.6161,0.6188,0.6206,0.6223,0.6233,0.6259,0.6274,0.6272,0.6288,0.6308,0.6328,0.6353,0.6373,0.6415,0.6419,0.6442,0.6437,0.6469,0.644,0.6441,0.6438,0.6437,0.6439,0.6475,0.6476,0.6477,0.6478,0,0.6238,0.6239,0.6262,0.6287,0.6306,0.6324,0.6341,0.6355,0.6354,0.6373,0.64,0.6415,0.6446,0.647,0.6492,0.6499,0.6488,0.6487,0.6495,0.6498,0.6498,0.6499,0.6399,0.6485,0.6484,0.6484,0.6483,0.6483,0.6294,0.6317,0.6334,0.636,0.6373,0.6389,0.6411,0.6417,0.644,0.6466,0.6462,0.6492,0.6506,0.6533,0.6543,0.6565,0.6554,0.6565,0.6568,0.6571,0.6575,0.6494,0.6569,0.6569,0.6568,0.6568,0.6568,0,0.6371,0.6381,0.6405,0.643,0.6451,0.644,0.6458,0.6475,0.6503,0.6517,0.6537,0.6568,0.6592,0.6598,0.6621,0.6638,0.6634,0.6644,0.6643,0.6645,0.6584,0.6575,0.6647,0.6647,0.6647,0.6647,0.6647,0.6647,0.6413,0.6453,0.6455,0.65,0.6509,0.6539,0.6551,0.6565,0.6577,0.6612,0.6632,0.6637,0.6648,0.6671,0.6692,0.6693,0.6702,0.6715,0.6714,0.6657,0.6649,0.6642,0.6633,0.6717,0.6717,0.6774,0.6774,0.6775]},{"header":{"parameterUnit":"m.s-1","parameterCategory":1,"la1":30.2991,"la2":30.254,"lo1":-89.0895,"lo2":-89.0444,"dy":0.0017,"dx":0.0017,"nx":28,"ny":28,"refTime":"2024-05-17T21:00:00:Z","depth":0,"parameterNumber":3,"parameterNumberName":"V-component_of_WINDS"},"data":[0,0,0,0,0,0,0,0,0,0,0,0,0,0,0,0,0,0,0,0,0,0,0,0,0,0,0,0,0,0,0,0,0,0,0,0,0,0,0,0,0,0,0,0,0,0,0,0,0,0,0,0,0,0,0,0,0,0,-0.4558,-0.4555,0,-0.4265,-0.4261,-0.4258,-0.4167,-0.4169,-0.417,-0.4172,-0.3866,-0.3857,-0.3848,0,0,0,0,0,0,0,0,0,0,0,0,0,-0.5036,-0.5028,-0.4559,-0.4555,-0.4551,-0.4265,-0.4261,-0.4257,-0.4167,-0.4169,-0.4171,-0.4172,-0.3869,-0.3858,-0.3847,0,0,0,0,0,0,0,0,0,0,0,0,0,-0.4794,-0.5025,-0.4559,-0.4472,-0.4461,-0.4266,-0.4261,-0.4256,-0.4167,-0.4169,-0.4171,-0.4173,-0.3873,-0.3859,-0.3845,-0.3714,0,0,-0.3802,-0.3796,0,0,0,0,0,0,0,0,-0.4808,-0.4777,-0.4488,-0.4478,-0.4465,-0.4255,-0.4318,-0.4074,-0.4166,-0.4278,-0.4172,-0.4174,-0.3994,-0.397,-0.391,-0.37,-0.3687,-0.3801,-0.3792,-0.3786,-0.3782,0,0,0,0,0,0,0,-0.4825,-0.4789,-0.4442,-0.4484,-0.447,-0.4446,-0.4414,-0.4271,-0.4127,-0.4269,-0.4262,-0.4228,-0.3988,-0.3924,-0.3902,-0.3683,-0.3801,-0.3788,-0.378,-0.3774,-0.3349,-0.3347,0,0,0,0,0,0,-0.4857,-0.4804,-0.4451,-0.4433,-0.4646,-0.4436,-0.44,-0.432,-0.4129,-0.4102,-0.4227,-0.4225,-0.3947,-0.3919,-0.3891,-0.3724,-0.3786,-0.3773,-0.3765,-0.3352,-0.3349,-0.3346,0,0,0,0,0,0,-0.4868,-0.4827,-0.4463,-0.4616,-0.4568,-0.4425,-0.4336,-0.4313,-0.4249,-0.4097,-0.407,-0.4188,-0.3947,-0.3911,-0.3759,-0.3712,-0.3766,-0.3753,-0.3355,-0.3351,-0.3347,-0.339,0,0,0,0,0,0,-0.4882,-0.4831,-0.4781,-0.4616,-0.4561,-0.4338,-0.4334,-0.4306,-0.4226,-0.4221,-0.4054,-0.4028,-0.3946,-0.3781,-0.3745,-0.3693,-0.3742,-0.3359,-0.3353,-0.3349,-0.3392,-0.3388,-0.3384,0,0,0,0,0,-0.49,-0.4804,-0.4779,-0.4737,-0.4495,-0.4336,-0.4304,-0.4213,-0.4222,-0.417,-0.4072,-0.4033,-0.3724,-0.3766,-0.3725,-0.3668,-0.3361,-0.3355,-0.3349,-0.3394,-0.3389,-0.3384,0,0,0,0,0,0,-0.4966,-0.4781,-0.4751,-0.46,-0.4484,-0.4321,-0.4252,-0.4211,-0.4089,-0.4089,-0.398,-0.3943,-0.3799,-0.3718,-0.3769,-0.3531,-0.3541,-0.3526,-0.3589,-0.3583,-0.3579,-0.3601,-0.373,0,0,0,0,0,-0.4963,-0.4851,-0.4694,-0.4576,-0.452,-0.4396,-0.4323,-0.4264,-0.4139,-0.4089,-0.398,-0.3859,-0.3734,-0.3654,-0.3531,-0.3381,-0.3342,-0.3321,-0.3318,-0.3315,-0.3303,-0.3216,-0.3205,-0.3325,-0.3325,-0.3326,0,0,-0.4956,-0.4841,-0.4776,-0.4586,-0.449,-0.4374,-0.4355,-0.4234,-0.4146,-0.407,-0.392,-0.3836,-0.3694,-0.3542,-0.347,-0.347,-0.3261,-0.3307,-0.3306,-0.3295,-0.3209,-0.3197,-0.3187,-0.3321,-0.3322,-0.3323,0,0,-0.4883,-0.4786,-0.4676,-0.458,-0.4434,-0.4353,-0.4327,-0.4169,-0.4111,-0.3959,-0.3899,-0.3793,-0.358,-0.3481,-0.3403,-0.3293,-0.3252,-0.3256,-0.3235,-0.3151,-0.3142,-0.3133,-0.3092,-0.3079,-0.3245,-0.3245,-0.3245,0,-0.4892,-0.4717,-0.4624,-0.4505,-0.4423,-0.435,-0.4237,-0.4148,-0.3969,-0.3913,-0.3917,-0.3649,-0.3548,-0.3372,-0.3345,-0.3285,-0.325,-0.3274,-0.3151,-0.3141,-0.3131,-0.3091,-0.3076,-0.3246,-0.3246,-0.3246,-0.3246,0,-0.4734,-0.4613,-0.4542,-0.4373,-0.4282,-0.4167,-0.4055,-0.3975,-0.3923,-0.3841,-0.3687,-0.3563,-0.3414,-0.3367,-0.3315,-0.3183,-0.3188,-0.3173,-0.318,-0.3123,-0.3083,-0.3067,-0.3248,-0.3248,-0.3247,-0.3247,0,0,-0.4694,-0.4476,-0.4451,-0.4373,-0.4207,-0.4111,-0.3992,-0.3847,-0.3779,-0.3659,-0.3555,-0.3377,-0.3362,-0.3274,-0.321,-0.3137,-0.3056,-0.313,-0.3125,-0.312,-0.2901,-0.2913,-0.2897,-0.3029,-0.3026,-0.3023,-0.2913,0,-0.4599,-0.4385,-0.4298,-0.4124,-0.401,-0.394,-0.3836,-0.3722,-0.3642,-0.3533,-0.3444,-0.3319,-0.331,-0.3255,-0.318,-0.3082,-0.3011,-0.3089,-0.2929,-0.2925,-0.2966,-0.2876,-0.2887,-0.2789,-0.2897,-0.2894,-0.2892,0,-0.446,-0.434,-0.4155,-0.4002,-0.3951,-0.386,-0.3719,-0.3616,-0.3486,-0.3432,-0.3334,-0.3274,-0.3145,-0.3162,-0.2981,-0.3037,-0.2966,-0.2908,-0.2902,-0.2882,-0.2904,-0.2853,-0.2756,-0.2741,-0.2867,-0.2869,-0.2871,0,-0.4448,-0.4239,-0.4101,-0.4037,-0.3856,-0.3793,-0.3715,-0.3586,-0.3504,-0.3381,-0.3327,-0.319,-0.3115,-0.301,-0.2914,-0.2936,-0.2742,-0.2751,-0.2692,-0.2695,-0.2653,-0.2657,-0.2543,-0.2611,-0.2611,-0.2612,-0.2612,0,-0.435,-0.4239,-0.4094,-0.4009,-0.3882,-0.3783,-0.366,-0.3576,-0.3462,-0.3359,-0.3289,-0.3193,-0.3073,-0.2961,-0.2885,-0.2746,-0.2713,-0.2665,-0.2646,-0.267,-0.2676,-0.2621,-0.2625,-0.2607,-0.2608,-0.2609,-0.261,0,-0.4315,-0.4213,-0.4058,-0.39,-0.3857,-0.3771,-0.3635,-0.3549,-0.3466,-0.3336,-0.3299,-0.3168,-0.3033,-0.2927,-0.2751,-0.27,-0.2553,-0.2532,-0.2597,-0.2587,-0.2534,-0.254,-0.2379,-0.2352,-0.2441,-0.244,-0.2439,0,-0.4259,-0.4172,-0.4005,-0.3931,-0.3854,-0.3736,-0.3652,-0.3551,-0.3467,-0.3311,-0.3244,-0.3104,-0.2986,-0.2773,-0.2661,-0.2525,-0.25,-0.2453,-0.2479,-0.2506,-0.2497,-0.2503,-0.2493,-0.245,-0.2449,-0.2449,-0.2449,0,-0.4169,-0.4123,-0.4006,-0.3871,-0.3774,-0.3663,-0.355,-0.3493,-0.3371,-0.3279,-0.3141,-0.305,-0.287,-0.2731,-0.2584,-0.2501,-0.2453,-0.2442,-0.2421,-0.2444,-0.2484,-0.246,-0.2587,-0.2445,-0.2446,-0.2446,-0.2446,-0.2446,-0.412,-0.404,-0.391,-0.3781,-0.3686,-0.3582,-0.3493,-0.34,-0.3283,-0.313,-0.3077,-0.2934,-0.2804,-0.2602,-0.2518,-0.2403,-0.2401,-0.2371,-0.2362,-0.2356,-0.2358,-0.2505,-0.2376,-0.2376,-0.2376,-0.2376,-0.2376,0,-0.4026,-0.3939,-0.3822,-0.3667,-0.3566,-0.3532,-0.3405,-0.3322,-0.3198,-0.3082,-0.2968,-0.2808,-0.2673,-0.2551,-0.241,-0.2342,-0.2317,-0.2308,-0.2311,-0.2293,-0.2369,-0.2401,-0.2331,-0.2331,-0.2331,-0.2331,-0.2331,-0.2331,-0.3965,-0.3827,-0.3765,-0.3578,-0.3491,-0.3352,-0.3282,-0.3185,-0.3091,-0.2917,-0.2805,-0.2727,-0.2607,-0.2457,-0.2332,-0.2299,-0.2249,-0.2246,-0.2208,-0.2282,-0.2287,-0.2293,-0.2322,-0.2237,-0.2237,-0.2141,-0.214,-0.2139]}]]